Regional Weather Roundup
Issued by NWS

Home | Current Version | Previous Version | Text Only | Print | Product List | Glossary Off
Versions: 1 2 3 4 5 6 7 8 9 10 11 12 13 14 15 16 17 18 19 20 21 22 23 24 25 26 27 28 29 30 31 32 33 34 35 36 37 38 39 40 41 42 43 44 45 46 47 48 49 50

000
ASUS43 KTOP 290908
RWRKS

WEATHER ROUNDUP FOR KANSAS
NATIONAL WEATHER SERVICE GOODLAND KS
400 AM CDT WED JUL 29 2015

NOTE:  "FAIR" INDICATES FEW OR NO CLOUDS BELOW 12,000 FEET WITH NO
SIGNIFICANT WEATHER AND/OR OBSTRUCTIONS TO VISIBILITY.

KSZ001>006-013>018-027>032-041>047-291000-
NORTHWEST KANSAS

CITY           SKY/WX    TMP DP  RH WIND       PRES   REMARKS
GOODLAND       CLOUDY    60  51  72 S3        30.23R
HAYS           CLOUDY    72  55  56 NE9       30.13R
HILL CITY      MOCLDY    63  58  83 NE9       30.15R
RUSSELL        CLOUDY    70  60  70 E13       30.11R
$$

KSZ061>065-074>080-084>089-291000-
SOUTHWEST KANSAS

CITY           SKY/WX    TMP DP  RH WIND       PRES   REMARKS
DODGE CITY     CLOUDY    71  56  58 NE17      30.11R
ELKHART          N/A     66  58  75 N14         N/A
GARDEN CITY    CLOUDY    71  56  58 NW6       30.20R
GREAT BEND     CLOUDY    64  57  77 E15       30.10S THUNDER
LIBERAL        CLOUDY    64  57  77 N36G48    30.01F
PRATT          MOCLDY    73  57  56 NE20G29   30.07R
$$

KSZ066>073-081>083-090>101-291000-
SOUTHEAST KANSAS

CITY           SKY/WX    TMP DP  RH WIND       PRES   REMARKS
CHANUTE        MOCLDY    76  73  91 CALM      30.00S
COFFEYVILLE    CLEAR     75  72  90 CALM      29.98R
HUTCHINSON     CLOUDY    75  61  61 N13G24    30.05R THUNDER
MEDICINE LODGE   N/A     77  69  76 NE8       29.99S
NEWTON         PTCLDY    73  64  73 NE10      30.05R
PARSONS        PTCLDY    74  73  97 CALM      30.00R
WICHITA INTL   MOCLDY    77  69  76 CALM      30.00R
WICHITA JABRA  PTCLDY    75  69  81 N6        30.01R
WICHITA MCCONL PTCLDY    78  69  71 E6        30.01R
WINFIELD       PTCLDY    77  69  76 CALM      30.00S
$$

KSZ007>012-019>026-033>040-048>060-102>105-291000-
NORTHEAST KANSAS

CITY           SKY/WX    TMP DP  RH WIND       PRES   REMARKS
CONCORDIA      MOCLDY    66  61  84 NE5       30.09R
EMPORIA        PTCLDY    75  69  81 N14       30.03R
LAWRENCE       TSTM      71  69  93 NE9       30.07S FOG
MANHATTAN      LGT RAIN  68  67  96 NE6       30.06R
MARYSVILLE     CLOUDY    66  64  94 CALM      30.08R
OLATHE IND     TSTM      73  69  87 NE17G26   30.08R
OLATHE EXE     LGT RAIN  75  67  76 N22G32    30.07R
SALINA         TSTM      67  61  81 NE10      30.10R
TOPEKA BILLARD TSTM      73  72  96 NE10      30.06R FOG
TOPEKA FORBES  TSTM      76  69  79 NE15G25   30.07R
$$



USA.gov is the U.S. government's official web portal to all federal, state and local government web resources and services.